Location: Wells
(51.2093°N, 2.6446°W)
Time: 07:34:06
(UTC+01:00)

PCSat - Pass Details

Date: 10 March 2026
Orbit: 780 x 790 km, 67.1° (Epoch: 13 April)

Event Time Altitude Azimuth Distance (km) Brightness Sun altitude
Exits shadow 01:29:33 19° 22° (NNE) 1,823 11.9 -40.8°
Drops below altitude 10° 01:31:09 10° 30° (NNE) 2,364 12.7 -40.7°
Sets 01:33:42 0° 37° (NE) 3,297 13.6 -40.6°
